SCP
0 0 0 0 0 0 0 0 0 -0 -0 -0 0 0 0 0 0 -0 -0 -0 -0 -0
-0 -0 0 0 0 0 0 -0 0 0 0 0 -0 0 0 0 0 0 -0 -0 -0 -0
-0 -0 0 1 1 0 0 0 0 0 0 0 0 -0 -0 0 -0 -0 -0 -0 -0 -0
-0 -0 0 0 1 1 1 1 0 1 0 0 0 0 -0 -0 -0 -0 -0 -0 -0 -0
-1 -1 -2 -1 -0 0 1 1 1 1 1 1 0 0 0 0 -0 0 -0 -0 -0 -0
-1 -1 -2 -2 -1 -1 -0 0 -0 -0 0 0 1 0 0 0 0 0 0 -0 -0 -0
-0 -1 -1 -1 -1 -1 -1 -1 -1 -1 -0 -1 -0 0 0 0 0 -0 0 0 0 0
-1 0 -0 -1 -1 -1 -1 -0 -1 -1 -2 -1 -1 -1 -1 -0 -0 -0 0 1 1 1
-1 -0 -0 -0 0 0 -1 -1 -1 -3 -3 -3 -2 -1 -1 -1 -0 0 0 1 2 3
-0 -1 -0 0 1 0 -1 0 -1 -1 -2 -3 -3 -1 -0 -0 0 0 1 1 2 1
0 -0 -0 -0 0 1 2 1 1 1 0 -0 -0 1 0 0 1 1 1 1 1 1
2 2 2 0 1 2 3 2 1 2 2 2 2 2 1 0 2 2 2 2 2 3
3 3 2 1 1 3 3 3 3 3 2 2 3 4 1 1 6 4 4 2 4 3
3 4 3 2 3 2 2 2 2 2 3 3 4 6 0 0 6 3 8 4 6 7
Wind_Speed_500mb
76 64 61 58 45 42 39 35 35 40 35 44 40 38 38 31 27 26 26 26 30 20
79 78 69 63 61 50 44 39 39 40 38 41 43 41 39 35 37 33 35 30 30 33
89 85 83 72 70 58 58 52 38 48 42 41 46 47 46 40 39 42 39 35 37 36
94 91 86 87 85 74 66 61 58 48 50 50 50 52 53 49 41 49 48 46 46 47
96 93 93 92 91 87 81 76 74 63 67 59 56 57 58 57 50 55 55 55 57 58
98 98 98 94 90 88 83 81 78 76 75 75 67 64 67 66 64 64 67 64 61 61
95 98 96 94 93 90 88 85 85 83 80 79 74 71 73 76 76 77 76 73 66 61
92 93 92 93 91 90 92 92 88 85 86 85 83 76 79 82 85 83 81 73 72 66
87 88 94 94 95 93 92 95 95 94 89 89 88 80 80 79 84 81 83 83 87 79
89 93 92 92 95 101 104 97 100 96 92 93 95 98 92 84 83 83 80 79 74 89
89 88 90 90 93 88 84 91 91 92 94 95 98 96 95 94 89 88 88 82 89 93
81 87 89 91 82 77 78 78 82 87 89 96 99 95 95 93 91 97 99 102 103 105
78 82 88 85 83 79 78 78 70 78 89 94 97 95 93 86 79 85 102 114 115 106
74 78 80 77 75 73 73 64 71 74 81 84 87 90 96 93 86 87 114 121 114 106
Wind_Direction_500mb
221 218 217 215 213 220 219 226 225 234 232 219 231 211 224 225 226 228 224 222 199 211
225 222 217 216 223 214 222 221 224 221 226 213 211 220 219 222 237 214 234 230 226 210
228 228 225 221 220 221 218 221 218 227 221 216 217 215 222 225 222 234 229 224 240 231
229 231 231 228 231 229 229 220 220 220 230 222 218 219 224 221 221 243 237 230 229 241
231 233 234 234 230 234 234 236 236 229 229 233 224 222 227 230 220 230 239 237 235 240
228 230 233 235 234 232 234 236 238 239 234 237 236 230 231 235 233 228 239 242 241 241
224 229 232 233 236 235 234 235 236 238 238 238 239 239 238 238 237 237 237 243 245 246
227 228 226 229 232 235 235 237 237 241 241 239 240 237 239 239 242 241 240 238 246 244
222 226 228 228 230 231 234 235 236 239 240 240 238 234 237 242 241 241 242 242 243 244
220 225 228 228 228 233 233 233 236 238 240 240 241 241 239 241 243 243 239 241 239 246
219 221 226 229 229 227 226 230 233 235 239 241 243 243 242 241 244 249 247 243 248 249
218 218 223 230 224 225 228 229 231 235 237 242 242 238 241 238 237 244 249 253 252 251
217 219 223 226 230 232 234 235 229 232 237 240 240 238 235 232 233 242 251 254 254 250
219 218 225 228 229 230 230 221 230 228 235 236 235 236 236 230 235 245 253 248 249 249
Wind_Speed_850mb
76 64 61 58 45 42 39 35 35 40 35 44 40 38 38 31 27 26 26 26 30 20
79 78 69 63 61 50 44 39 39 40 38 41 43 41 39 35 37 33 35 30 30 33
89 85 83 72 70 58 58 52 38 48 42 41 46 47 46 40 39 42 39 35 37 36
94 91 86 87 85 74 66 61 58 48 50 50 50 52 53 49 41 49 48 46 46 47
96 93 93 92 91 87 81 76 74 63 67 59 56 57 58 57 50 55 55 55 57 58
98 98 98 94 90 88 83 81 78 76 75 75 67 64 67 66 64 64 67 64 61 61
95 98 96 94 93 90 88 85 85 83 80 79 74 71 73 76 76 77 76 73 66 61
92 93 92 93 91 90 92 92 88 85 86 85 83 76 79 82 85 83 81 73 72 66
87 88 94 94 95 93 92 95 95 94 89 89 88 80 80 79 84 81 83 83 87 79
89 93 92 92 95 101 104 97 100 96 92 93 95 98 92 84 83 83 80 79 74 89
89 88 90 90 93 88 84 91 91 92 94 95 98 96 95 94 89 88 88 82 89 93
81 87 89 91 82 77 78 78 82 87 89 96 99 95 95 93 91 97 99 102 103 105
78 82 88 85 83 79 78 78 70 78 89 94 97 95 93 86 79 85 102 114 115 106
74 78 80 77 75 73 73 64 71 74 81 84 87 90 96 93 86 87 114 121 114 106
Wind_Direction_850mb
221 218 217 215 213 220 219 226 225 234 232 219 231 211 224 225 226 228 224 222 199 211
225 222 217 216 223 214 222 221 224 221 226 213 211 220 219 222 237 214 234 230 226 210
228 228 225 221 220 221 218 221 218 227 221 216 217 215 222 225 222 234 229 224 240 231
229 231 231 228 231 229 229 220 220 220 230 222 218 219 224 221 221 243 237 230 229 241
231 233 234 234 230 234 234 236 236 229 229 233 224 222 227 230 220 230 239 237 235 240
228 230 233 235 234 232 234 236 238 239 234 237 236 230 231 235 233 228 239 242 241 241
224 229 232 233 236 235 234 235 236 238 238 238 239 239 238 238 237 237 237 243 245 246
227 228 226 229 232 235 235 237 237 241 241 239 240 237 239 239 242 241 240 238 246 244
222 226 228 228 230 231 234 235 236 239 240 240 238 234 237 242 241 241 242 242 243 244
220 225 228 228 228 233 233 233 236 238 240 240 241 241 239 241 243 243 239 241 239 246
219 221 226 229 229 227 226 230 233 235 239 241 243 243 242 241 244 249 247 243 248 249
218 218 223 230 224 225 228 229 231 235 237 242 242 238 241 238 237 244 249 253 252 251
217 219 223 226 230 232 234 235 229 232 237 240 240 238 235 232 233 242 251 254 254 250
219 218 225 228 229 230 230 221 230 228 235 236 235 236 236 230 235 245 253 248 249 249